Home > Weather > Ojinaga > Past weeks

Flag for Mexico Weather for the Past 2 Weeks in Ojinaga, Chihuahua, Mexico

Now
55 °F

Sunny.


Feels Like: 53 °F
Forecast: 27 / 67 °F
Wind: 7 mph from Southeast

Location: Marfa Municipal Airport

Current Time: Feb 9, 2016 at 11:38:44 AM

Latest Report: Feb 9, 2016 at 10:56 AM


Visibility: 10 mi

Pressure: 30.43 "Hg (27.69 "Hg at 788m altitude)

Humidity: 21%

Dew point: 16 °F

Location of OjinagaLocation

Historic Weather in Ojinaga — Graph

°F

Ojinaga Temperature Yesterday

Maximum temperature yesterday: 54 °F (at 2:56 PM)
Minimum temperature yesterday: 23 °F (at 10:56 PM)
Average temperature yesterday: 39 °F

High & Low Weather Summary for the Past Weeks

 TemperatureHumidityPressure
High73 °F (Feb 1, 1:56 PM)96% (Jan 27, 4:56 AM)30.53 "Hg (Jan 27, 4:56 AM)
Low9 °F (Feb 4, 5:56 AM)6% (Feb 7, 12:56 PM)29.46 "Hg (Feb 1, 1:56 PM)
Average39 °F44%30.17 "Hg
* Reported Jan 25 9:56 AM — Feb 9 9:56 AM, Ojinaga, Weather by CustomWeather, © 2016

Note: Actual official high and low records may vary slightly from our data, if they occured in-between our weather recording intervals... More about our weather records

Advertising

Ojinaga Weather History for the Previous 24 Hours

 ConditionsComfort  
Time TempWeatherWind HumidityBarometerVisibility
9:56 AM
Tue, Feb 9
53 °FSunny.3 mph22%30.45 "Hg10 mi
8:56 AM48 °FSunny.3 mph28%30.46 "Hg10 mi
7:56 AM36 °FSunny.No wind48%30.47 "Hg10 mi
6:56 AM23 °FSunny.5 mph72%30.47 "Hg10 mi
5:56 AM20 °FClear.7 mph74%30.45 "Hg10 mi
4:56 AM21 °FClear.7 mph71%30.40 "Hg10 mi
3:56 AM21 °FClear.6 mph71%30.39 "Hg10 mi
2:56 AM24 °FClear.6 mph65%30.39 "Hg10 mi
1:56 AM24 °FClear.5 mph62%30.40 "Hg10 mi
12:56 AM23 °FClear.8 mph65%30.41 "Hg10 mi
11:56 PM
Mon, Feb 8
24 °FClear.6 mph62%30.43 "Hg10 mi
10:56 PM23 °FClear.9 mph65%30.45 "Hg10 mi
9:56 PM26 °FClear.8 mph60%30.43 "Hg10 mi
8:56 PM27 °FClear.7 mph55%30.44 "Hg10 mi
7:56 PM33 °FClear.3 mph43%30.43 "Hg10 mi
6:56 PM40 °FClear.7 mph36%30.40 "Hg10 mi
5:56 PM45 °FClear.10 mph31%30.37 "Hg10 mi
4:56 PM54 °FSunny.3 mph22%30.30 "Hg10 mi
3:56 PM54 °FSunny.No wind22%30.30 "Hg10 mi
2:56 PM54 °FSunny.3 mph22%30.30 "Hg10 mi
1:56 PM52 °FSunny.5 mph23%30.33 "Hg10 mi
12:56 PM50 °FSunny.3 mph25%30.38 "Hg10 mi
11:56 AM47 °FSunny.8 mph26%30.45 "Hg10 mi
Weather by CustomWeather, © 2016

See weather overviewHow to use our weather pages